| time (UTC) | temp C | wind direction | speed KPH | gust KPH | rain 1hr cm | rain 24hr cm | rain mn cm | humidity % | barometer mb |
| 20260903103028 | 18 | 147 | 3.2 | 16.1 | 1.32 | 1.78 | 1.78 | 94 | 1013.9 |
| 20260903101611 | 18 | 177 | 3.2 | 12.9 | 1.19 | 1.32 | 1.32 | 94 | 1014.1 |
| 20260903100036 | 18 | 193 | 1.6 | 11.3 | 1.19 | 1.27 | 1.27 | 94 | 1013.9 |
| 20260903094509 | 18 | 167 | 3.2 | 12.9 | 0.91 | 0.97 | 0.97 | 93 | 1014.3 |
| 20260903093105 | 18 | 168 | 0.0 | 11.3 | 0.43 | 0.46 | 0.46 | 93 | 1014.4 |
| 20260903091518 | 18 | 205 | 0.0 | 8.0 | 0.10 | 0.13 | 0.13 | 92 | 1014.3 |
| 20260903090054 | 18 | 181 | 1.6 | 14.5 | 0.05 | 0.08 | 0.08 | 92 | 1014.3 |
| 20260903084509 | 18 | 191 | 3.2 | 16.1 | 0.03 | 0.03 | 0.03 | 92 | 1014.4 |
| 20260903083044 | 18 | 168 | 1.6 | 11.3 | 0.03 | 0.03 | 0.03 | 92 | 1014.5 |
| 20260903081521 | 18 | 171 | 1.6 | 9.7 | 0.03 | 0.03 | 0.03 | 92 | 1014.6 |
| 20260903080031 | 18 | 191 | 0.0 | 8.0 | 0.03 | 0.03 | 0.03 | 91 | 1014.9 |
| 20260903074503 | 18 | 142 | 3.2 | 14.5 | 0.00 | 0.00 | 0.00 | 90 | 1015.2 |
| 20260903073022 | 19 | 198 | 3.2 | 12.9 | 0.00 | 0.00 | 0.00 | 88 | 1015.3 |
| 20260903071609 | 19 | 192 | 3.2 | 12.9 | 0.00 | 0.00 | 0.00 | 88 | 1015.4 |
| 20260903070031 | 19 | 172 | 4.8 | 14.5 | 0.00 | 0.00 | 0.00 | 87 | 1015.5 |
| 20260903064606 | 19 | 192 | 3.2 | 17.7 | 0.00 | 0.00 | 0.00 | 86 | 1015.7 |
| 20260903063102 | 19 | 200 | 6.4 | 16.1 | 0.00 | 0.00 | 0.00 | 85 | 1015.9 |
| 20260903061555 | 19 | 187 | 3.2 | 9.7 | 0.00 | 0.00 | 0.00 | 85 | 1016.3 |
| 20260903060025 | 19 | 172 | 4.8 | 12.9 | 0.00 | 0.00 | 0.00 | 86 | 1016.2 |
| 20260903054617 | 18 | 160 | 0.0 | 12.9 | 0.00 | 0.00 | 0.00 | 85 | 1016.7 |
| 20260903053037 | 18 | 156 | 3.2 | 11.3 | 0.00 | 0.00 | 0.00 | 86 | 1016.9 |
| 20260903051505 | 18 | 148 | 3.2 | 11.3 | 0.00 | 0.00 | 0.00 | 86 | 1016.9 |
| 20260903050107 | 18 | 202 | 3.2 | 8.0 | 0.00 | 0.00 | 0.00 | 86 | 1017.3 |
| 20260903044512 | 18 | 155 | 3.2 | 11.3 | 0.00 | 0.00 | 0.00 | 85 | 1017.2 |
| 20260903033104 | 18 | 207 | 4.8 | 16.1 | 0.00 | 0.00 | 0.00 | 79 | 1017.3 |
| 20260903031525 | 18 | 188 | 3.2 | 16.1 | 0.00 | 0.00 | 0.00 | 77 | 1017.8 |
| 20260903030110 | 18 | 150 | 4.8 | 14.5 | 0.00 | 0.00 | 0.00 | 81 | 1017.8 |
| 20260903024536 | 18 | 193 | 3.2 | 11.3 | 0.00 | 0.00 | 0.00 | 82 | 1017.8 |
| 20260903023003 | 19 | 207 | 3.2 | 12.9 | 0.00 | 0.00 | 0.00 | 80 | 1017.6 |
| 20260903021540 | 19 | 157 | 4.8 | 17.7 | 0.00 | 0.00 | 0.00 | 80 | 1017.8 |
| 20260903020009 | 19 | 200 | 4.8 | 14.5 | 0.00 | 0.00 | 0.00 | 79 | 1018.0 |
| 20260903014555 | 19 | 201 | 4.8 | 12.9 | 0.00 | 0.00 | 0.00 | 77 | 1018.4 |
| 20260903013022 | 19 | 141 | 3.2 | 14.5 | 0.00 | 0.00 | 0.00 | 76 | 1018.3 |
| 20260903011609 | 19 | 178 | 4.8 | 16.1 | 0.00 | 0.00 | 0.00 | 75 | 1018.4 |
| 20260903010029 | 19 | 163 | 1.6 | 19.3 | 0.00 | 0.00 | 0.00 | 77 | 1018.4 |
| 20260903004554 | 19 | 197 | 6.4 | 17.7 | 0.00 | 0.00 | 0.00 | 77 | 1018.4 |
| 20260903003020 | 19 | 154 | 3.2 | 12.9 | 0.00 | 0.00 | 0.00 | 78 | 1018.2 |
| 20260903001548 | 19 | 133 | 4.8 | 14.5 | 0.00 | 0.00 | 0.00 | 76 | 1018.6 |
| 20260903000019 | 19 | 189 | 3.2 | 16.1 | 0.00 | 0.00 | 0.00 | 77 | 1018.7 |
| 20260902234557 | 20 | 161 | 3.2 | 12.9 | 0.00 | 0.00 | 0.00 | 78 | 1018.9 |
| 20260902233033 | 20 | 193 | 3.2 | 14.5 | 0.00 | 0.00 | 0.00 | 77 | 1018.8 |
| 20260902231506 | 20 | 160 | 4.8 | 20.9 | 0.00 | 0.00 | 0.00 | 76 | 1018.9 |
| 20260902230041 | 20 | 164 | 3.2 | 14.5 | 0.00 | 0.00 | 0.00 | 74 | 1019.1 |
| 20260902224512 | 20 | 79 | 4.8 | 17.7 | 0.00 | 0.00 | 0.00 | 74 | 1019.0 |
| 20260902223101 | 20 | 162 | 6.4 | 19.3 | 0.00 | 0.08 | 0.00 | 73 | 1019.0 |
| 20260902221527 | 20 | 89 | 4.8 | 14.5 | 0.00 | 0.08 | 0.00 | 71 | 1018.9 |
| 20260902220104 | 20 | 163 | 6.4 | 20.9 | 0.00 | 0.08 | 0.00 | 72 | 1018.9 |
| 20260902214523 | 20 | 113 | 4.8 | 16.1 | 0.00 | 0.08 | 0.00 | 72 | 1018.7 |
| 20260902213059 | 20 | 136 | 4.8 | 16.1 | 0.00 | 0.18 | 0.00 | 72 | 1019.1 |
| 20260902211510 | 21 | 143 | 6.4 | 17.7 | 0.00 | 0.18 | 0.00 | 71 | 1019.2 |
| 20260902210043 | 21 | 153 | 4.8 | 16.1 | 0.00 | 0.18 | 0.00 | 72 | 1019.1 |
| 20260902204523 | 21 | 133 | 6.4 | 17.7 | 0.00 | 0.18 | 0.00 | 71 | 1019.1 |
| 20260902203056 | 21 | 174 | 4.8 | 14.5 | 0.00 | 0.20 | 0.00 | 72 | 1018.9 |
| 20260902201534 | 21 | 163 | 8.0 | 16.1 | 0.00 | 0.20 | 0.00 | 71 | 1019.1 |
| 20260902200114 | 22 | 93 | 4.8 | 19.3 | 0.00 | 0.20 | 0.00 | 68 | 1019.4 |
| 20260902194528 | 22 | 124 | 6.4 | 17.7 | 0.00 | 0.20 | 0.00 | 69 | 1019.5 |
| 20260902193112 | 22 | 193 | 9.7 | 25.7 | 0.00 | 0.25 | 0.00 | 68 | 1019.4 |
| 20260902191543 | 21 | 99 | 6.4 | 22.5 | 0.00 | 0.25 | 0.00 | 71 | 1019.4 |
| 20260902190007 | 22 | 268 | 8.0 | 20.9 | 0.00 | 0.25 | 0.00 | 70 | 1019.4 |
| 20260902184550 | 22 | 175 | 6.4 | 24.1 | 0.00 | 0.25 | 0.00 | 70 | 1019.3 |
| 20260902183109 | 22 | 129 | 4.8 | 24.1 | 0.00 | 0.66 | 0.00 | 70 | 1019.2 |
| 20260902181538 | 22 | 124 | 6.4 | 17.7 | 0.00 | 0.66 | 0.00 | 70 | 1019.7 |
| 20260902180132 | 22 | 129 | 8.0 | 19.3 | 0.00 | 0.66 | 0.00 | 70 | 1019.6 |
| 20260902174537 | 22 | 185 | 6.4 | 22.5 | 0.00 | 0.66 | 0.00 | 71 | 1019.5 |
| 20260902173113 | 22 | 77 | 8.0 | 19.3 | 0.00 | 0.66 | 0.00 | 70 | 1019.4 |
| 20260902171542 | 22 | 141 | 6.4 | 19.3 | 0.00 | 0.66 | 0.00 | 71 | 1019.7 |
| 20260902170015 | 22 | 96 | 3.2 | 20.9 | 0.00 | 0.66 | 0.00 | 72 | 1019.7 |
| 20260902164557 | 22 | 124 | 4.8 | 14.5 | 0.00 | 0.66 | 0.00 | 71 | 1019.9 |
| 20260902163016 | 22 | 197 | 4.8 | 12.9 | 0.00 | 0.66 | 0.00 | 70 | 1020.1 |
| 20260902161554 | 22 | 112 | 4.8 | 14.5 | 0.00 | 0.66 | 0.00 | 68 | 1020.2 |
| 20260902160021 | 22 | 141 | 4.8 | 14.5 | 0.00 | 0.66 | 0.00 | 70 | 1020.4 |
| 20260902154559 | 22 | 83 | 4.8 | 12.9 | 0.00 | 0.66 | 0.00 | 71 | 1020.3 |
| 20260902153027 | 22 | 124 | 3.2 | 16.1 | 0.00 | 0.71 | 0.00 | 72 | 1020.3 |
| 20260902151609 | 22 | 119 | 9.7 | 16.1 | 0.00 | 0.71 | 0.00 | 70 | 1020.2 |
| 20260902150034 | 22 | 79 | 4.8 | 16.1 | 0.00 | 0.71 | 0.00 | 71 | 1020.4 |
| 20260902144511 | 21 | 179 | 3.2 | 17.7 | 0.00 | 0.71 | 0.00 | 73 | 1019.8 |
| 20260902143041 | 21 | 114 | 6.4 | 16.1 | 0.00 | 0.71 | 0.00 | 72 | 1019.8 |
| 20260902141505 | 21 | 87 | 6.4 | 16.1 | 0.00 | 0.71 | 0.00 | 76 | 1019.8 |
| 20260902140035 | 21 | 90 | 8.0 | 17.7 | 0.00 | 0.71 | 0.00 | 77 | 1019.5 |
| 20260902134608 | 20 | 106 | 6.4 | 16.1 | 0.00 | 0.71 | 0.00 | 80 | 1019.5 |
| 20260902133027 | 20 | 70 | 4.8 | 12.9 | 0.00 | 0.71 | 0.00 | 81 | 1019.4 |
| 20260902131559 | 19 | 59 | 4.8 | 14.5 | 0.00 | 0.71 | 0.00 | 81 | 1019.4 |
| 20260902130021 | 19 | 62 | 1.6 | 14.5 | 0.00 | 0.71 | 0.00 | 81 | 1019.5 |
| 20260902124611 | 19 | 83 | 4.8 | 14.5 | 0.00 | 0.71 | 0.00 | 81 | 1019.4 |
| 20260902123041 | 19 | 119 | 6.4 | 17.7 | 0.00 | 0.71 | 0.00 | 81 | 1019.5 |
| 20260902121504 | 19 | 115 | 8.0 | 16.1 | 0.00 | 0.71 | 0.00 | 81 | 1019.8 |
| 20260902120046 | 19 | 53 | 8.0 | 17.7 | 0.00 | 0.71 | 0.00 | 79 | 1019.9 |
| 20260902114516 | 19 | 59 | 6.4 | 17.7 | 0.00 | 0.71 | 0.00 | 80 | 1019.7 |
| 20260902113058 | 19 | 91 | 6.4 | 16.1 | 0.00 | 0.71 | 0.00 | 81 | 1019.5 |
| 20260902110118 | 18 | 28 | 6.4 | 16.1 | 0.00 | 0.71 | 0.00 | 81 | 1019.1 |
| 20260902104527 | 18 | 119 | 8.0 | 19.3 | 0.00 | 0.71 | 0.00 | 82 | 1018.9 |